Simultaneous Nadir Overpasses (SNOs) Predictions

Prediction of SNOs between GOES-16 and METOP-B Satellite Orbit:

Table of predicted SNOs for the next 14.0 days since TLE Epoch: 10/8/2022
Index Date Time (GOES-16) GOES-16 Lat,Lon METOP-B Lat,Lon Distance(km) Time Diff (sec)
1 10/09/2022 14:34:41 -0.08, -75.21 0.18, -76.48 144.87 80
2 10/10/2022 14:16:42 -0.07, -75.21 -0.88, -71.48 425.04 80
3 10/12/2022 02:35:44 0.07, -75.21 -0.10, -76.09 99.10 80
4 10/13/2022 02:15:05 0.07, -75.22 0.97, -71.08 471.06 80
5 10/14/2022 14:31:18 -0.07, -75.25 -0.00, -75.65 45.27 80
6 10/17/2022 02:29:40 0.06, -75.27 0.05, -75.25 2.66 80
7 10/19/2022 14:30:33 -0.06, -75.32 -0.17, -74.82 57.53 80
8 10/21/2022 02:49:35 0.05, -75.34 -0.84, -79.42 464.46 80
9 10/22/2022 02:26:15 0.05, -75.36 0.24, -74.42 106.93 80
